x

9099018 - Marquette C.g., Mi (mcgm4) Weather Station

4:54am - Sat 29th Apr 2017 All times are CDT. -5 hours from GMT.

  • Wind
    5mph, 14mph gusts
  • Air Temp 33°f
  • Sea Pressure 1021mb
  • 9099018 - Marquette C.g., Mi
  • 9099018 - Marquette C.g., Mi

More Historic Weather Station data

Upgrade to MSW Pro to gain access to the past 30 days of data for over 8000 Wavebouys and Weather Stations around the globe.

Join Pro

Comparision Forecast

View Surf forecast
   
Sat 04/29 4:54am 5 14 mph 1021mb 33f
4:48am 7 10 mph 1020.8mb 33f
4:42am 5 13 mph 1020.7mb 32f
4:36am 9 15 mph 1020.8mb 32f
4:30am 6 13 mph 1020.6mb 32f
4:24am 6 9 mph 1020.5mb 32f
4:18am 7 11 mph 1020.2mb 32f
4:12am 6 11 mph 1020.3mb 32f
4:06am 6 13 mph 1020.1mb 32f
4:00am 7 10 mph 1020mb 32f
3:54am 6 10 mph 1020mb 32f
3:48am 5 8 mph 1019.9mb 32f
3:42am 5 8 mph 1020.1mb 32f
3:36am 5 9 mph 1020.3mb 32f
3:30am 5 8 mph 1020.6mb 33f
3:24am 5 7 mph 1020.5mb 33f
3:18am 5 10 mph 1020.5mb 33f
3:12am 5 8 mph 1020.4mb 33f
3:06am 7 10 mph 1020.3mb 33f
3:00am 5 10 mph 1020.2mb 33f
2:54am 6 10 mph 1020mb 33f
2:48am 5 10 mph 1020mb 33f
2:42am 6 11 mph 1019.9mb 33f
2:36am 7 10 mph 1019.8mb 33f
2:30am 6 9 mph 1019.8mb 33f
2:24am 5 11 mph 1019.7mb 33f
2:18am 3 11 mph 1019.8mb 33f
2:12am 7 11 mph 1019.9mb 33f
2:06am 5 9 mph 1020mb 33f
2:00am 3 9 mph 1019.9mb 33f
1:54am 5 8 mph 1019.7mb 33f
1:48am 5 8 mph 1019.7mb 33f
1:42am 6 10 mph 1019.6mb 33f
1:36am 6 10 mph 1019.5mb 33f
1:30am 6 10 mph 1019.4mb 33f
1:24am 3 8 mph 1019.2mb 33f
1:18am 5 13 mph 1019.3mb 33f
1:12am 5 10 mph 1019.3mb 34f
1:06am 5 8 mph 1019.2mb 34f
1:00am 6 9 mph 1019.1mb 34f
12:54am 5 9 mph 1019.2mb 34f
12:48am 3 9 mph 1019.2mb -
12:42am 3 7 mph 1019.2mb -
12:36am 5 7 mph 1019.3mb -
12:30am 2 7 mph 1019.3mb 33f
12:24am 3 8 mph 1019.1mb 33f
12:18am 6 9 mph 1018.8mb 34f
12:12am 3 9 mph 1018.8mb 33f
12:06am 2 6 mph 1018.8mb 34f
12:00am 5 6 mph 1018.9mb 34f
Fri 04/28 11:54pm 3 8 mph 1019mb 34f
11:48pm 3 6 mph 1019mb 34f
11:42pm 3 5 mph 1019.1mb 34f
11:36pm 2 6 mph 1019mb 35f
11:30pm 3 7 mph 1018.9mb 35f
11:24pm 3 7 mph 1018.9mb 35f
11:18pm 6 7 mph 1019mb 35f
11:12pm 5 7 mph 1018.9mb 35f
11:06pm 2 7 mph 1018.9mb 35f
11:00pm 5 8 mph 1018.8mb 35f
10:54pm 3 9 mph 1018.7mb 35f
10:48pm 6 9 mph 1018.7mb 35f
10:42pm 3 9 mph 1018.6mb 35f
10:36pm 7 10 mph 1018.4mb 35f
10:30pm 5 8 mph 1018.4mb 35f
10:24pm 6 10 mph 1018.2mb 35f
10:18pm 6 11 mph 1018.3mb 35f
10:12pm 5 11 mph 1018.2mb 35f
10:06pm 7 14 mph 1018.1mb 35f
10:00pm 8 13 mph 1018mb 35f
9:54pm 7 14 mph 1017.8mb 35f
9:48pm 9 15 mph 1017.6mb 36f
9:42pm 7 16 mph 1017.4mb 36f
9:36pm 8 14 mph 1017.3mb 36f
9:30pm 6 13 mph 1017.1mb 36f
9:24pm 8 14 mph 1016.9mb 36f
9:18pm 7 10 mph 1016.7mb 37f
9:12pm 8 15 mph 1016.5mb 37f
9:06pm 8 10 mph 1016.3mb 37f
9:00pm 6 13 mph 1016.1mb 37f
8:54pm 8 15 mph 1016mb 37f
8:48pm 6 10 mph 1015.8mb 37f
8:42pm 5 11 mph 1015.7mb 38f
8:36pm 6 11 mph 1015.5mb 38f
8:30pm 7 14 mph 1015.3mb 38f
8:24pm 5 10 mph 1015mb 38f
8:18pm 3 7 mph 1014.9mb 38f
8:12pm 2 8 mph 1014.8mb 38f
8:06pm 1 3 mph 1014.7mb 38f
8:00pm 3 7 mph 1014.6mb 38f
7:48pm 2 5 mph 1014.4mb 38f
7:42pm 2 8 mph 1014.3mb 39f
7:36pm 6 9 mph 1014.3mb 39f
7:30pm 3 8 mph 1014.2mb 39f
7:24pm 5 9 mph 1014.2mb 39f
7:18pm 5 9 mph 1014mb 39f
7:12pm 2 9 mph 1013.9mb 39f
7:06pm 6 9 mph 1013.9mb 39f
7:00pm 5 9 mph 1013.9mb 39f
6:48pm 5 7 mph 1013.9mb 38f
6:42pm 5 8 mph 1013.9mb 38f
6:36pm 5 8 mph 1013.9mb 38f
6:30pm 3 8 mph 1013.7mb 38f
6:24pm 3 9 mph 1013.6mb 38f
6:18pm 5 11 mph 1013.6mb 38f
6:12pm 5 11 mph 1013.7mb 38f
6:06pm 5 11 mph 1013.7mb 38f
6:00pm 3 8 mph 1013.6mb 39f
5:54pm 3 8 mph 1013.5mb 39f
5:48pm 3 11 mph 1013.4mb 38f
5:42pm 6 8 mph 1013.4mb 38f
5:36pm 6 11 mph 1013.4mb 38f
5:30pm 6 13 mph 1013.3mb 39f
5:24pm 5 8 mph 1013.2mb 39f
5:18pm 2 8 mph 1013.1mb 38f
5:12pm 2 8 mph 1013.2mb 39f
5:06pm 5 9 mph 1013.1mb 39f
5:00pm 2 8 mph 1013mb 39f
4:48pm 7 11 mph 1012.9mb 38f
4:42pm 6 14 mph 1012.8mb 38f
4:36pm 9 14 mph 1012.9mb 38f
4:30pm 5 8 mph 1012.7mb 39f
4:24pm 5 9 mph 1012.7mb 39f
4:18pm 6 8 mph 1012.7mb 39f
4:12pm 7 11 mph 1012.7mb 39f
4:06pm 6 14 mph 1012.7mb 39f
4:00pm 6 11 mph 1012.7mb 39f
3:54pm 5 13 mph 1012.6mb 39f
3:48pm 5 10 mph 1012.5mb 39f
3:42pm 6 11 mph 1012.4mb 39f
3:36pm 7 13 mph 1012.4mb 39f
3:30pm 6 11 mph 1012.4mb 39f
3:24pm 6 14 mph 1012.3mb 39f
3:18pm 5 14 mph 1012.1mb 39f
3:12pm 10 14 mph 1011.9mb 38f
3:06pm 6 11 mph 1011.9mb 39f
3:00pm 6 14 mph 1011.9mb 39f
2:54pm 9 17 mph 1011.9mb 38f
2:48pm 8 16 mph 1011.8mb 38f
2:42pm 7 16 mph 1011.7mb 39f
2:36pm 6 11 mph 1011.7mb 40f
2:30pm 8 15 mph 1011.7mb 38f
2:24pm 5 14 mph 1011.6mb 38f
2:18pm 8 18 mph 1011.5mb 38f
2:12pm 6 18 mph 1011.4mb 38f
2:06pm 9 14 mph 1011.4mb 37f
2:00pm 8 15 mph 1011.4mb 37f
1:54pm 9 17 mph 1011.3mb 37f
1:48pm 8 17 mph 1011.2mb 37f
1:42pm 9 17 mph 1011.1mb 37f
1:36pm 9 18 mph 1011mb 37f
1:30pm 10 18 mph 1011.1mb 37f
1:24pm 8 14 mph 1011.1mb 37f
1:18pm 11 16 mph 1011.1mb 36f
1:12pm 10 17 mph 1011.1mb 36f
1:06pm 7 18 mph 1011.2mb 37f
1:00pm 11 22 mph 1011.1mb 36f
12:54pm 7 18 mph 1011.1mb 36f
12:48pm 13 22 mph 1010.9mb 36f
12:42pm 6 17 mph 1010.7mb 37f
12:36pm 9 18 mph 1010.5mb 37f
12:30pm 14 22 mph 1010.3mb 36f
12:24pm 10 22 mph 1010.3mb 36f
12:18pm 10 21 mph 1010.2mb 35f
12:12pm 10 17 mph 1010.3mb 35f
12:06pm 7 15 mph 1010.2mb 35f
12:00pm 6 15 mph 1010.2mb 35f
11:54am 10 18 mph 1010.2mb 34f
11:48am 6 16 mph 1010.1mb 35f
11:42am 10 16 mph 1010.2mb 34f
11:36am 11 16 mph 1010.1mb 34f
11:30am 13 21 mph 1010mb 34f
11:24am 8 14 mph 1010mb 34f
11:18am 10 16 mph 1010mb 34f
11:12am 9 15 mph 1010mb 34f
11:06am 6 16 mph 1009.8mb 34f
11:00am 9 15 mph 1009.7mb 34f
10:54am 6 14 mph 1009.6mb 34f
10:48am 9 16 mph 1009.4mb 34f
10:42am 6 11 mph 1009.3mb 34f
10:36am 9 17 mph 1009.3mb 34f
10:30am 5 16 mph 1009.1mb 34f
10:24am 8 13 mph 1009.1mb 34f
10:18am 11 20 mph 1008.9mb 33f
10:12am 6 14 mph 1008.8mb 34f
10:06am 5 18 mph 1008.6mb 34f
10:00am 5 10 mph 1008.5mb 34f
9:48am 13 20 mph 1008.5mb 33f
9:42am 5 17 mph 1008.3mb 35f
9:36am 7 10 mph 1008.2mb 35f
9:30am 7 11 mph 1008.1mb 34f
9:24am 5 9 mph 1008.1mb 33f
9:18am 6 10 mph 1008.1mb 33f
9:12am 9 16 mph 1008.1mb 32f
9:06am 8 15 mph 1008.1mb 33f
9:00am 6 11 mph 1008.1mb 33f
8:54am 7 11 mph 1008mb 32f
8:48am 8 17 mph 1007.9mb 32f
8:42am 10 15 mph 1007.9mb 32f
8:36am 8 16 mph 1007.8mb 32f
8:30am 9 13 mph 1007.7mb 32f
8:24am 11 16 mph 1007.6mb 32f
8:18am 8 15 mph 1007.5mb 32f
8:12am 9 11 mph 1007.5mb 32f
8:06am 9 15 mph 1007.5mb 32f
8:00am 8 14 mph 1007.5mb 32f
7:54am 7 15 mph 1007.6mb 32f
7:48am 10 17 mph 1007.4mb 32f
7:42am 10 16 mph 1007.4mb 32f
7:36am 8 17 mph 1007.4mb 32f
7:30am 10 16 mph 1007.4mb 32f
7:24am 8 17 mph 1007.5mb 32f
7:18am 9 16 mph 1007.3mb 31f
7:12am 8 14 mph 1007.2mb 32f
7:06am 8 15 mph 1007.2mb 31f
7:00am 10 14 mph 1007.3mb 31f
6:30am 7 14 mph 1006.9mb 31f
6:24am 7 14 mph 1006.9mb 31f
6:18am 7 13 mph 1006.7mb 30f
6:12am 6 13 mph 1006.7mb 30f
6:06am 9 14 mph 1006.7mb 30f
6:00am 7 13 mph 1006.7mb 30f
5:54am 9 13 mph 1006.8mb 30f
5:48am 9 15 mph 1006.8mb 30f
5:42am 11 17 mph 1006.8mb 30f
5:36am 13 17 mph 1006.6mb 30f
5:30am 15 18 mph 1006.5mb 30f
5:24am 10 15 mph 1006.3mb 31f
5:18am 13 16 mph 1006.2mb 30f
5:12am 5 9 mph 1006.1mb 30f
5:06am 5 11 mph 1006mb 31f
5:00am 7 14 mph 1005.9mb 30f
4:54am 6 15 mph 1005.9mb 30f
4:48am 7 13 mph 1005.8mb 31f
4:42am 7 10 mph 1005.7mb 31f
4:36am 8 14 mph 1005.7mb 31f
4:30am 7 10 mph 1005.7mb 31f
4:24am 6 13 mph 1005.6mb 31f
4:18am 6 14 mph 1005.6mb 31f
4:12am 7 13 mph 1005.5mb 31f
4:06am 8 14 mph 1005.4mb 31f
4:00am 7 15 mph 1005.2mb 31f
3:54am 9 14 mph 1005.2mb 31f
3:48am 9 14 mph 1005.2mb 31f
3:42am 9 13 mph 1005.1mb 30f
3:36am 8 13 mph 1005.1mb 31f
3:30am 7 11 mph 1005.2mb 31f
3:24am 8 13 mph 1005.1mb 30f
3:18am 10 14 mph 1005.1mb 31f
3:12am 7 11 mph 1005.1mb 31f
3:06am 8 11 mph 1005.1mb 31f
3:00am 9 15 mph 1005.1mb 31f
2:54am 7 15 mph 1005.1mb 31f
2:48am 9 14 mph 1005mb 31f
2:42am 10 13 mph 1005mb 31f
2:36am 7 14 mph 1004.9mb 31f
2:30am 7 13 mph 1004.9mb 31f
2:18am 7 15 mph 1004.8mb 31f
2:12am 11 16 mph 1004.9mb 31f
2:06am 10 14 mph 1004.8mb 31f
2:00am 7 13 mph 1004.7mb 31f
1:54am 7 10 mph 1004.6mb 30f
1:48am 8 11 mph 1004.7mb 30f
1:42am 7 10 mph 1004.7mb 30f
1:36am 8 10 mph 1004.7mb 30f
1:30am 5 7 mph 1004.6mb 30f
1:24am 2 7 mph 1004.5mb 30f
1:18am 2 10 mph 1004.4mb 30f
1:12am 5 10 mph 1004.3mb 30f
1:06am 3 8 mph 1004.2mb 31f
1:00am 6 8 mph 1004.2mb 31f
12:54am 6 9 mph 1004.1mb 31f
12:48am 7 10 mph 1004.1mb 30f
12:42am 6 11 mph 1004.1mb 31f
12:36am 6 9 mph 1004.1mb 31f
12:30am 7 13 mph 1004mb 31f
12:24am 6 10 mph 1003.9mb 31f
12:18am 5 8 mph 1003.9mb 31f
12:12am 6 14 mph 1003.9mb 31f
12:06am 8 13 mph 1003.9mb 31f
12:00am 8 11 mph 1003.8mb 31f
Thu 04/27 11:54pm 3 10 mph 1003.7mb 31f
11:48pm 6 8 mph 1003.6mb 31f
11:42pm  -  7 mph 1003.6mb 31f
11:36pm 5 8 mph 1003.5mb 30f
11:30pm 5 8 mph 1003.5mb 31f
11:24pm 5 9 mph 1003.5mb 31f
11:18pm 3 8 mph 1003.5mb 31f
11:12pm 3 9 mph 1003.6mb 31f
11:06pm 6 13 mph 1003.5mb 31f
11:00pm 7 13 mph 1003.4mb 31f
10:54pm 9 14 mph 1003.4mb 31f
10:48pm 6 11 mph 1003.3mb 31f
10:42pm 8 13 mph 1003.2mb 31f
10:36pm 3 11 mph 1003.1mb 31f
10:30pm 6 7 mph 1003mb 31f
10:24pm 6 9 mph 1002.9mb 31f
10:18pm 2 7 mph 1002.9mb 30f
10:12pm 3 7 mph 1002.8mb 30f
10:06pm 5 9 mph 1002.8mb 30f
10:00pm 3 7 mph 1002.8mb 30f
9:54pm 2 7 mph 1002.7mb 30f
9:48pm 3 8 mph 1002.7mb 30f
9:42pm 6 8 mph 1002.7mb 31f
9:36pm 3 6 mph 1002.6mb 31f
9:30pm 5 8 mph 1002.5mb 31f
9:24pm 3 7 mph 1002.5mb 31f
9:18pm 3 8 mph 1002.5mb 31f
9:12pm 3 8 mph 1002.3mb 31f
9:06pm 3 11 mph 1002.2mb 31f
9:00pm 5 9 mph 1002.1mb 31f
8:54pm 7 10 mph 1002mb 31f
8:48pm 3 10 mph 1001.9mb 32f
8:42pm 6 10 mph 1001.8mb 32f
8:36pm 5 8 mph 1001.6mb 32f
8:30pm 7 11 mph 1001.5mb 32f
8:24pm 9 13 mph 1001.4mb 32f
8:18pm 9 14 mph 1001.2mb 32f
8:12pm 6 9 mph 1001mb 32f
8:06pm 5 8 mph 1000.8mb 31f
8:00pm 5 11 mph - 31f
7:54pm 8 15 mph - 31f
7:48pm 2 7 mph 1000.3mb 31f
7:42pm 3 6 mph 1000.3mb 31f
7:36pm 3 6 mph 1000.2mb 31f
7:30pm 5 6 mph 1000.1mb 31f
7:24pm 3 7 mph 1000mb 31f
7:18pm 5 7 mph 1000mb 31f
7:12pm 6 9 mph 999.9mb 31f
7:06pm 3 7 mph 999.9mb 31f
7:00pm 3 7 mph 999.8mb 31f
6:48pm 5 8 mph 999.7mb 30f
6:42pm 6 9 mph 999.7mb 30f
6:36pm 6 10 mph 999.7mb 30f
6:30pm 7 14 mph 999.6mb 30f
6:24pm 9 16 mph 999.5mb 30f
6:18pm 10 17 mph 999.4mb 31f
6:12pm 16 21 mph 999.3mb 31f
6:06pm 10 18 mph 999.1mb 31f
6:00pm 9 13 mph 998.9mb 31f
5:48pm 8 13 mph 998.7mb 31f
5:42pm 6 11 mph 998.6mb 31f
5:36pm 7 11 mph 998.5mb 31f
5:30pm 8 10 mph 998.3mb 31f
5:24pm 7 13 mph 998.3mb 30f
5:18pm 7 9 mph 998.2mb 30f
5:12pm 6 14 mph 998mb 30f
5:06pm 8 13 mph 997.9mb 30f
5:00pm 8 11 mph 997.8mb 30f
4:48pm 5 13 mph 997.5mb 30f
4:42pm 5 11 mph 997.3mb 30f
4:36pm 6 11 mph 997.2mb 30f
4:30pm 5 13 mph 997.2mb 30f
4:24pm 5 13 mph 997mb 30f
4:18pm 3 11 mph 996.9mb 30f
4:12pm 6 11 mph 996.8mb 31f
4:06pm 5 11 mph 996.6mb 31f
4:00pm 6 13 mph 996.5mb 31f
3:54pm 5 9 mph 996.4mb 31f
3:48pm 7 13 mph 996.3mb 32f
3:42pm 11 17 mph 996.1mb 32f
3:36pm 5 7 mph 995.9mb 33f
3:30pm 2 8 mph 995.7mb 33f
3:24pm 2 10 mph 995.5mb 33f
3:18pm 5 9 mph 995.4mb 33f
3:12pm 2 9 mph 995.2mb 33f
3:06pm 3 8 mph 995mb 33f
3:00pm 3 9 mph 994.8mb 33f
2:54pm 5 8 mph 994.8mb 33f
2:48pm 3 10 mph 994.5mb 33f
2:42pm 6 14 mph 994.3mb 33f
2:36pm 3 9 mph 994.1mb 34f
2:30pm 5 10 mph 993.9mb 34f
2:24pm 5 9 mph 993.8mb 33f
2:18pm 7 13 mph 993.7mb 33f
2:12pm 3 14 mph 993.6mb 33f
2:06pm 6 11 mph 993.5mb 33f
2:00pm 7 13 mph 993.5mb 33f
1:54pm 8 14 mph 993.4mb 33f
1:48pm 5 13 mph 993.3mb 33f
1:42pm 8 14 mph 993.4mb 33f
1:36pm 5 13 mph 993.3mb 33f
1:30pm 7 14 mph 993.1mb 33f
1:24pm 9 14 mph 993mb 33f
1:18pm 9 15 mph 993.1mb 32f
1:12pm 7 16 mph 993.2mb 33f
1:06pm 8 14 mph 993.2mb 33f
1:00pm 6 13 mph 993.1mb 33f
12:54pm 7 10 mph 992.9mb 33f
12:48pm 5 8 mph 992.8mb 33f
12:42pm 3 11 mph 993mb 33f
12:36pm 5 10 mph 992.8mb 33f
12:30pm 6 11 mph 992.8mb 33f
12:24pm 6 10 mph 992.8mb 33f
12:18pm 6 11 mph 992.9mb 33f
12:12pm 9 13 mph 993mb 32f
12:06pm 7 11 mph 993mb 32f
12:00pm 5 9 mph 993.1mb 32f
11:48am 7 11 mph 993.2mb 32f
11:42am 8 13 mph 992.8mb 32f
11:36am 7 16 mph 992.9mb 32f
11:30am 6 14 mph 993mb 32f
11:24am 6 9 mph 993.1mb 32f
11:18am 7 13 mph 993.1mb 32f
11:12am 8 14 mph 992.9mb 32f
11:06am 7 13 mph 992.9mb 32f
11:00am 8 15 mph 992.9mb 32f
10:54am 8 15 mph 992.9mb 32f
10:48am 10 17 mph 993mb 31f
10:42am 7 13 mph 992.9mb 31f
10:36am 8 16 mph 992.7mb 31f
10:30am 7 15 mph 992.7mb 31f
10:24am 8 17 mph 992.5mb 31f
10:18am 9 16 mph 992.1mb 31f
10:12am 7 14 mph 992.5mb 31f
10:06am 5 16 mph 992.4mb 31f
10:00am 8 14 mph 992.4mb 31f
9:54am 8 14 mph 992.6mb 31f
9:48am 6 13 mph 992.6mb 31f
9:42am 7 14 mph 992.6mb 31f
9:36am 8 15 mph 992.9mb 31f
9:30am 6 11 mph 993.1mb 31f
9:24am 10 17 mph 993mb 31f
9:18am 7 15 mph 993.2mb 31f
9:12am 9 14 mph 993.2mb 31f
9:06am 7 13 mph 993.3mb 31f
9:00am 6 14 mph 993.5mb 31f
8:54am 6 15 mph 993.7mb 31f
8:48am 8 15 mph 993.6mb 31f
8:42am 8 14 mph 993.5mb 31f
8:36am 6 13 mph 993.5mb 31f
8:30am 8 14 mph 993.7mb 31f
8:24am 7 17 mph 993.9mb 31f
8:18am 7 16 mph 993.9mb 31f
8:12am 7 15 mph 993.9mb 31f
8:06am 10 21 mph 994.1mb 31f
8:00am 7 15 mph 994.2mb 31f
7:54am 8 20 mph 994.3mb 31f
7:48am 11 20 mph 994.3mb 31f
7:42am 9 18 mph 994.4mb 31f
7:36am 6 21 mph 994.4mb 31f
7:30am 7 17 mph 994.6mb 31f
7:24am 8 22 mph 994.6mb 31f
7:18am 9 18 mph 994.5mb 31f
7:12am 8 16 mph 994.6mb 31f
7:06am 10 18 mph 994.8mb 31f
7:00am 7 15 mph 994.8mb 31f
6:48am 9 15 mph 994.9mb 31f
6:42am 9 18 mph 994.9mb 31f
6:36am 9 16 mph 994.9mb 31f
6:30am 10 20 mph 995mb 31f
6:24am 7 15 mph 994.9mb 31f
6:18am 8 15 mph 994.9mb 31f
6:12am 7 16 mph 995mb 31f
6:06am 8 14 mph 995.1mb 31f
6:00am 7 14 mph 995.2mb 31f
5:54am 5 17 mph 995.4mb 31f
5:48am 7 17 mph 995.3mb 31f
5:42am 8 16 mph 995.2mb 31f
5:36am 6 18 mph 995.4mb 31f
5:30am 10 17 mph 995.5mb 31f
5:24am 10 18 mph 995.6mb 31f
5:18am 8 15 mph 995.9mb 31f
5:12am 7 15 mph 995.9mb 31f
5:06am 7 15 mph 995.9mb 31f
5:00am 7 15 mph 995.9mb 31f
4:54am 9 15 mph 996mb 31f
4:48am 7 13 mph 996.3mb 31f
4:42am 9 15 mph 996.3mb 31f
4:36am 6 13 mph 996.4mb 32f
4:30am 6 15 mph 996.4mb 32f
4:24am 7 11 mph 996.6mb 32f
4:18am 8 14 mph 996.8mb 32f
4:12am 6 16 mph 996.8mb 32f
4:06am 7 15 mph 996.8mb 32f
4:00am 9 14 mph 996.9mb 32f
3:54am 6 11 mph 997mb 32f
3:48am 6 10 mph 996.8mb 32f
3:42am 5 10 mph 997.1mb 32f
3:36am 5 10 mph 996.9mb 32f
3:30am 6 10 mph 997mb 32f
3:24am 3 6 mph 997mb 33f
3:18am 3 7 mph 997mb 33f
3:12am 3 9 mph 997mb 33f
3:06am 3 9 mph 996.9mb 33f
3:00am 5 7 mph 997mb 33f
2:54am 3 7 mph 997.1mb 33f
2:48am 5 7 mph 997.2mb 33f
2:42am 5 8 mph 997.4mb 33f
2:36am 5 9 mph 997.3mb 33f
2:30am 3 11 mph 997.3mb 33f
2:24am 5 8 mph 997.3mb 33f
2:18am 5 9 mph 997.4mb 34f
2:12am 7 13 mph 997.4mb 34f
2:06am 7 11 mph 997.6mb 34f
2:00am 5 7 mph 997.6mb 34f
1:54am 3 8 mph 997.8mb 34f
1:48am 3 7 mph 997.9mb 34f
1:42am 5 7 mph 997.8mb 34f
1:36am 2 6 mph 997.8mb 34f
1:30am 2 8 mph 997.9mb 34f
1:24am 5 7 mph 997.9mb 34f
1:18am 6 9 mph 997.9mb 34f
1:12am 5 8 mph 997.9mb 35f
1:06am 5 10 mph 998mb 35f
1:00am 3 8 mph 998mb 35f
12:54am 5 8 mph 998mb 35f
12:48am 2 7 mph 998mb 35f
12:42am 3 8 mph 997.8mb 35f
12:36am 5 9 mph 998mb 35f
12:30am 5 10 mph 997.9mb 35f
12:24am 2 8 mph 997.9mb 35f
12:18am 5 7 mph 997.9mb 35f
12:12am 3 6 mph 997.9mb 35f
12:06am 3 8 mph 998mb 35f
12:00am 3 7 mph 998.1mb 35f
Wed 04/26 11:54pm 5 7 mph 998.1mb 35f
11:48pm 3 6 mph 998.1mb 35f
11:42pm 5 6 mph 998mb 35f
11:36pm 5 8 mph 998mb 35f
11:30pm 3 6 mph 998mb 36f
11:24pm 5 7 mph 998mb 36f
11:18pm 2 7 mph 998.1mb 36f
11:12pm 5 8 mph 997.9mb 36f
11:06pm 3 6 mph 997.9mb 36f
11:00pm 5 8 mph 998mb 36f
10:54pm 5 9 mph 997.9mb 36f
10:48pm 5 8 mph 997.9mb 36f
10:42pm 5 9 mph 998mb 36f
10:36pm 7 9 mph 998mb 36f
10:30pm 6 13 mph 998mb 36f
10:24pm 5 7 mph 998mb 36f
10:18pm 5 11 mph 998.2mb 36f
10:12pm 3 11 mph 998.3mb 36f
10:06pm 6 10 mph 998.2mb 36f
10:00pm 5 7 mph 998.2mb 37f
9:54pm 6 9 mph 998.3mb 37f
9:48pm 2 6 mph 998.2mb 37f
9:42pm 3 8 mph 998.1mb 37f
9:36pm 5 10 mph 997.8mb 37f
9:30pm 5 11 mph 997.8mb 37f
9:24pm 6 9 mph 997.9mb 37f
9:18pm 6 10 mph 997.7mb 37f
9:12pm 3 8 mph 997.5mb 37f
9:06pm 3 6 mph 997.3mb 37f
9:00pm 5 7 mph 997.3mb 38f
8:48pm 6 8 mph 996.8mb 38f
8:42pm 5 9 mph 996.8mb 38f
8:36pm 5 9 mph 996.7mb 38f
8:30pm 5 8 mph 996.5mb 38f
8:24pm 6 8 mph 996.3mb 38f
8:18pm 5 7 mph 996.3mb 38f
8:12pm 2 6 mph 996.1mb 38f
8:06pm 2 7 mph 996.3mb 38f
8:00pm 3 6 mph 996.2mb 38f
7:48pm 5 14 mph 995.9mb 38f
7:42pm 6 9 mph 995.5mb 38f
7:36pm 5 9 mph 995.5mb 38f
7:30pm 6 9 mph 995.7mb 38f
7:24pm 6 11 mph 995.6mb 38f
7:18pm 5 10 mph 995.5mb 38f
7:12pm 5 9 mph 995.6mb 38f
7:06pm 6 8 mph 995.7mb 38f
7:00pm 5 7 mph 995.6mb 38f
6:48pm 5 8 mph 995.8mb 38f
6:42pm 5 10 mph 995.7mb 38f
6:36pm 5 9 mph 995.7mb 38f
6:30pm 5 9 mph 995.6mb 38f
6:24pm 5 8 mph 995.5mb 38f
6:18pm 3 10 mph 995.5mb 38f
6:12pm 5 11 mph 995.4mb 38f
6:06pm 7 10 mph 995.3mb 38f
6:00pm 5 9 mph 995.2mb 39f
5:54pm 6 10 mph 995mb 39f
5:48pm 5 10 mph 995.2mb 39f
5:42pm 6 10 mph 995.2mb 39f
5:36pm 5 10 mph 995.2mb 39f
5:30pm 7 11 mph 995.1mb 39f
5:24pm 6 9 mph 995mb 39f
5:18pm 7 9 mph 994.9mb 40f
5:12pm 6 8 mph 994.6mb 40f
5:06pm 6 9 mph 994.5mb 40f
5:00pm 6 9 mph 994.3mb 40f
4:48pm 6 8 mph 994.1mb 40f
4:42pm 5 6 mph 994.2mb 40f
4:36pm 3 6 mph 994.3mb 41f
4:30pm 2 6 mph 994.3mb 41f
4:24pm 5 8 mph 994.3mb 40f
4:18pm 3 6 mph 994.4mb 40f
4:12pm 2 5 mph 994.5mb 39f
4:06pm 2 5 mph 994.6mb 39f
4:00pm 5 6 mph 994.5mb 38f
3:54pm 3 6 mph 994.6mb 38f
3:48pm 5 6 mph 994.7mb 38f
3:42pm 1 5 mph 994.9mb 39f
3:36pm 2 3 mph 994.9mb 39f
3:30pm 1 3 mph 994.9mb 39f
3:24pm 2 7 mph 994.9mb 39f
3:18pm 2 6 mph 995mb 39f
3:12pm 2 5 mph 995mb 39f
3:06pm 3 6 mph 995mb 38f
3:00pm 3 7 mph 995.1mb 38f
2:54pm 3 6 mph 995.1mb 38f
2:48pm 3 5 mph 995.3mb 38f
2:42pm 3 6 mph 995.4mb 38f
2:36pm 3 6 mph 995.5mb 38f
2:30pm 3 6 mph 995.5mb 38f
2:24pm 3 6 mph 995.7mb 38f
2:18pm 5 7 mph 995.6mb 37f
2:12pm 5 7 mph 995.6mb 37f
2:06pm 3 5 mph 995.8mb 37f
2:00pm 3 8 mph 995.9mb 37f
1:54pm 6 8 mph 995.8mb 37f
1:48pm 5 8 mph 995.7mb 37f
1:42pm 5 8 mph 995.9mb 37f
1:36pm 2 9 mph 996.1mb 37f
1:30pm 6 9 mph 996.3mb 37f
1:24pm 5 8 mph 996.2mb 37f
1:18pm 2 9 mph 996.2mb 37f
1:12pm 5 8 mph 996.4mb 37f
1:06pm 5 7 mph 996.5mb 37f
1:00pm 5 13 mph 996.6mb 37f
12:54pm 6 11 mph 996.6mb 37f
12:48pm 6 10 mph 996.8mb 37f
12:42pm 6 9 mph 996.8mb 37f
12:36pm 5 9 mph 996.9mb 37f
12:30pm 5 7 mph 997.2mb 37f
12:24pm 3 8 mph 997.4mb 37f
12:18pm 5 7 mph 997.4mb 37f
12:12pm 3 9 mph 997.5mb 37f
12:06pm 6 9 mph 997.6mb 37f
12:00pm 7 10 mph 997.7mb 37f
11:54am 5 9 mph 997.7mb 37f
11:48am 5 8 mph 997.7mb 37f
11:42am 6 9 mph 997.7mb 37f
11:36am 3 8 mph 997.9mb 37f
11:30am 6 9 mph 997.9mb 37f
11:24am 5 8 mph 998.2mb 37f
11:18am 5 9 mph 998.3mb 37f
11:12am 3 9 mph 998.4mb 37f
11:06am 5 9 mph 998.4mb 37f
11:00am 5 8 mph 998.4mb 37f
10:54am 3 8 mph 998.6mb 37f
10:48am 3 7 mph 998.8mb 37f
10:42am 5 7 mph 998.8mb 37f
10:36am 5 8 mph 998.8mb 37f
10:30am 3 7 mph 998.9mb 37f
10:24am 6 7 mph 999.1mb 37f
10:18am 5 7 mph 999.2mb 37f
10:12am 6 9 mph 999.4mb 37f
10:06am 3 7 mph 999.5mb 37f
10:00am 3 7 mph 999.6mb 37f
9:54am 3 7 mph 999.6mb 37f
9:48am 5 8 mph 999.6mb 37f
9:42am 5 10 mph 999.6mb 37f
9:36am 5 7 mph 999.7mb 37f
9:30am 5 8 mph 999.8mb 37f
9:24am 5 9 mph 1000mb 37f
9:18am 5 7 mph 999.9mb 37f
9:12am 5 8 mph 1000mb 37f
9:06am 5 8 mph 1000.2mb 37f
9:00am 5 7 mph 1000.5mb 37f
8:54am 5 9 mph 1000.4mb 37f
8:48am 3 9 mph 1000.6mb 37f
8:42am 3 8 mph 1000.6mb 37f
8:36am 6 9 mph 1000.7mb 37f
8:30am 3 8 mph 1000.7mb 37f
8:24am 6 9 mph 1000.7mb 37f
8:18am 5 8 mph 1000.9mb 37f
8:12am 5 9 mph 1001.1mb 37f
8:06am 5 9 mph 1001.1mb 37f
8:00am 5 10 mph 1001.1mb 37f
7:48am 3 10 mph 1001.3mb 37f
7:42am 6 11 mph 1001.1mb 37f
7:36am 5 11 mph 1001.3mb 37f
7:30am 5 10 mph 1001.4mb 37f
7:24am 7 9 mph 1001.5mb 36f
7:18am 6 10 mph 1001.7mb 36f
7:12am 6 10 mph 1001.7mb 37f
7:06am 5 8 mph 1001.9mb 36f
7:00am 5 9 mph 1001.7mb 37f
6:54am 6 9 mph 1001.4mb 37f
6:48am 5 9 mph 1001.8mb 37f
6:42am 5 8 mph 1001.8mb 37f
6:36am 5 10 mph 1002mb 37f
6:30am 5 11 mph 1001.8mb 37f
6:24am 5 8 mph 1001.8mb 37f
6:18am 5 7 mph 1002mb 37f
6:12am 3 8 mph 1002mb 37f
6:06am 5 9 mph 1002mb 37f
6:00am 6 10 mph 1002.1mb 37f
5:54am 7 13 mph 1002.2mb 37f
5:48am 6 9 mph 1002.4mb 37f
5:42am 6 9 mph 1002.4mb 38f
5:36am 6 11 mph 1002.6mb 38f
5:30am 6 9 mph 1002.6mb 38f
5:24am 5 9 mph 1002.6mb 38f
5:18am 5 9 mph 1002.7mb 38f
5:12am 6 9 mph 1002.7mb 37f
5:06am 6 9 mph 1002.6mb 38f
5:00am 6 9 mph 1002.3mb 37f
4:54am 6 9 mph 1002.5mb 37f
4:48am 5 11 mph 1002.7mb 37f
4:42am 6 13 mph 1002.8mb 37f
4:36am 8 11 mph 1003.1mb 37f
4:30am 5 10 mph 1003.3mb 37f
4:24am 6 11 mph 1003.2mb 37f
4:18am 8 10 mph 1003.2mb 37f
4:12am 6 9 mph 1003.3mb 38f
4:06am 6 13 mph 1002.8mb 38f
4:00am 6 11 mph 1003mb 38f
3:54am 5 13 mph 1002.8mb 38f
3:48am 6 15 mph 1003.1mb 38f
3:42am 5 10 mph 1003.3mb 37f
3:36am 6 9 mph 1003.2mb 37f
3:30am 6 11 mph 1003.4mb 37f
3:24am 6 10 mph 1003.6mb 37f
3:18am 5 14 mph 1003.5mb 37f
3:12am 7 11 mph 1003.7mb 37f
3:06am 3 9 mph 1003.9mb 38f
3:00am 6 9 mph 1003.9mb 38f
2:54am 5 9 mph 1003.7mb 37f
2:48am 5 9 mph 1003.6mb 38f
2:42am 6 10 mph 1003.6mb 38f
2:36am 8 11 mph 1003.8mb 37f
2:30am 6 9 mph 1004mb 38f
2:24am 7 10 mph 1004.1mb 38f
2:18am 7 9 mph 1004mb 38f
2:12am 2 7 mph 1004.2mb 39f
2:06am 2 5 mph 1004.3mb 40f
2:00am 1 6 mph 1004.4mb 40f
1:54am 5 7 mph 1004.4mb 40f
1:48am 2 7 mph 1004.4mb 39f
1:42am 5 8 mph 1004.6mb 39f
1:36am 5 10 mph 1004.4mb -
1:30am 8 10 mph 1004.5mb -
1:24am 8 10 mph 1004.5mb -
1:18am 7 10 mph 1004.7mb -
1:12am 7 9 mph 1004.9mb -
1:06am 6 9 mph 1005mb -
1:00am 3 6 mph 1005.1mb -
12:54am 3 5 mph 1005.2mb -
12:48am 5 7 mph 1005.1mb -
12:42am 7 10 mph 1005.1mb -
12:36am 9 11 mph 1004.7mb -
12:30am 7 9 mph 1004.7mb -
12:24am 5 9 mph 1004.7mb -
12:18am 8 10 mph 1004.6mb -
12:12am 6 11 mph 1004.6mb -
12:06am 9 13 mph 1004.8mb -
12:00am 10 13 mph 1004.8mb -
Tue 04/25 11:54pm 8 16 mph 1004.9mb -
11:48pm 9 14 mph 1004.9mb -
11:42pm 2
mph
1004.8mb 53f
11:36pm 2
mph
1004.8mb 53f
11:30pm 1 3 mph 1004.7mb 53f
11:24pm 2 5 mph 1004.5mb 53f
11:18pm 5 8 mph 1004.4mb 52f
11:12pm 7 9 mph 1004.3mb 52f
11:06pm 5 9 mph 1004.3mb 52f
11:00pm 2 3 mph 1004.2mb 50f
10:54pm 1 5 mph 1004.2mb 49f
10:48pm 3 6 mph 1004.2mb 49f
10:42pm 3 8 mph 1004.2mb 47f
10:36pm 6 8 mph 1004.2mb 47f
10:30pm 5 6 mph 1004.2mb 47f
10:24pm 3 7 mph 1004.1mb 46f
10:18pm 6 8 mph 1004.1mb 46f
10:12pm 6 7 mph 1004mb 47f
10:06pm 3 6 mph 1004mb 47f
10:00pm 2 7 mph 1004mb 47f
9:54pm 5 7 mph 1004mb 48f
9:48pm 5 6 mph 1003.9mb 48f
9:42pm 6 8 mph 1003.9mb 49f
9:36pm 8 10 mph 1003.8mb 51f
9:30pm 9 11 mph 1003.7mb 50f
9:24pm 9 13 mph 1003.6mb 50f
9:18pm 9 13 mph 1003.5mb 50f
9:12pm 9 11 mph 1003.5mb 49f
9:06pm 8 11 mph 1003.4mb 49f
9:00pm 8 9 mph 1003.4mb 49f
8:48pm 8 10 mph 1003.3mb 51f
8:42pm 10 11 mph 1003.2mb 54f
8:36pm 8 13 mph 1003.1mb 54f
8:30pm 11 14 mph 1002.9mb 55f
8:24pm 10 16 mph 1002.8mb 55f
8:18pm 14 16 mph 1002.8mb 55f
8:12pm 14 20 mph 1002.8mb 55f
8:06pm 17 22 mph 1002.7mb 57f
8:00pm 20 24 mph 1002.5mb 56f
7:48pm 16 24 mph 1002.5mb 56f
7:42pm 20 23 mph 1002.4mb 57f
7:36pm 17 21 mph 1002.3mb 55f
7:30pm 21 22 mph 1002.2mb 58f
7:24pm 15 18 mph 1002.3mb 56f
7:18pm 14 16 mph 1002.3mb 56f
7:12pm 11 15 mph 1002.3mb 57f
7:06pm 9 14 mph 1002.3mb 57f
7:00pm 10 15 mph 1002.2mb 57f
6:48pm 11 18 mph 1002.2mb 58f
6:42pm 13 17 mph 1002.2mb 58f
6:36pm 13 22 mph 1002.1mb 59f
6:30pm 20 25 mph 1002.2mb 61f
6:24pm 16 18 mph 1002.2mb 58f
6:18pm 15 18 mph 1002.2mb 56f
6:12pm 17 18 mph 1002mb 58f
6:06pm 16 18 mph 1002mb 58f
6:00pm 15 17 mph 1002mb 57f
5:48pm 18 21 mph 1002mb 59f
5:42pm 20 25 mph 1001.9mb 59f
5:36pm 15 17 mph 1001.9mb 57f
5:30pm 9 13 mph 1002mb 55f
5:24pm 11 14 mph 1002.1mb 57f
5:18pm 14 18 mph 1002.1mb 56f
5:12pm 13 18 mph 1002.1mb 56f
5:06pm 13 17 mph 1002.1mb 55f
5:00pm 15 17 mph 1002.1mb 58f
4:48pm 10 17 mph 1002.1mb 55f
4:42pm 13 15 mph 1002mb 56f
4:36pm 13 16 mph 1002mb 56f
4:30pm 9 16 mph 1001.9mb 55f
4:24pm 13 15 mph 1002mb 58f
4:18pm 14 20 mph 1002mb 60f
4:12pm 15 18 mph 1001.9mb 59f
4:06pm 16 21 mph 1002mb 61f
4:00pm 14 20 mph 1002.1mb 58f
3:54pm 21 23 mph 1002.1mb 61f
3:48pm 16 20 mph 1002.1mb 58f
3:42pm 18 21 mph 1002.2mb 58f
3:36pm 15 17 mph 1002.2mb 60f
3:30pm 14 17 mph 1002.2mb 58f
3:24pm 14 16 mph 1002.3mb 57f
3:18pm 13 17 mph 1002.4mb 58f
3:12pm 15 17 mph 1002.3mb 58f
3:00pm 14 15 mph 1002.5mb 57f
2:54pm 7 10 mph 1002.6mb 51f
2:48pm 8 11 mph 1002.7mb 53f
2:42pm 11 13 mph 1002.7mb 55f
2:36pm 9 13 mph 1002.7mb 54f
2:30pm 14 18 mph 1002.8mb 57f
2:24pm 15 17 mph 1002.8mb 58f
2:18pm 11 13 mph 1002.9mb 55f
2:12pm 11 16 mph 1003mb 56f
2:06pm 16
mph
1003mb 58f
2:00pm 14
mph
1003.1mb 59f
1:54pm 14 16 mph 1003.1mb 57f
1:48pm 10 15 mph 1003.2mb 53f
1:42pm 13 15 mph 1003.2mb 60f
1:36pm 9 15 mph 1003.2mb 55f
1:30pm 13 16 mph 1003.3mb 57f
1:24pm 10 14 mph 1003.4mb 56f
1:18pm 11 13 mph 1003.5mb 54f
1:12pm 11 16 mph 1003.5mb 54f
1:06pm 14 18 mph 1003.5mb 58f
1:00pm 16 17 mph 1003.5mb 59f
12:54pm 11 16 mph 1003.6mb 57f
12:48pm 14 17 mph 1003.7mb 56f
12:42pm 15 20 mph 1003.8mb 56f
12:36pm 15 18 mph 1003.8mb 56f
12:30pm 14 16 mph 1003.9mb 56f
12:24pm 14 15 mph 1004mb 56f
12:18pm 10 14 mph 1003.9mb 55f
12:12pm 11 18 mph 1004.1mb 56f
12:06pm 15 21 mph 1004.1mb 56f
12:00pm 17 21 mph 1004mb 55f
11:54am 13 17 mph 1004.1mb 54f
11:48am 11 15 mph 1004.2mb 55f
11:42am 14 17 mph 1004.2mb 56f
11:36am 5 11 mph 1004.2mb 54f
11:30am 6 15 mph 1004.2mb 54f
11:24am 6 20 mph 1004.1mb 54f
11:18am 18 22 mph 1003.8mb 54f
11:12am 10 21 mph 1004.1mb 55f
11:06am 6 17 mph 1004.1mb 54f
11:00am 10 18 mph 1004mb 53f